Location: Acheville
(50.3840°N, 2.8827°E)
Time: 19:25:34
(UTC+00:00)

Meteor 2-10 Rocket - Pass Details

Date: 24 October 2021
Orbit: 733 x 885 km, 81.2° (Epoch: 07 December)

Event Time Altitude Azimuth Distance (km) Brightness Sun altitude
Rises 17:29:13 0° 157° (SSE) 3,392 6.7 -8.7°
Reaches altitude 10° 17:31:57 10° 146° (SSE) 2,438 5.9 -9.1°
Maximum altitude 17:36:34 28° 89° (E) 1,478 4.4 -9.8°
Drops below altitude 10° 17:41:04 10° 32° (NNE) 2,367 5.7 -10.6°
Sets 17:43:40 0° 21° (NNE) 3,276 6.5 -11.0°
